GOTEBORG/LANDVETTER current weather conditions

sailwx.info

Wind from 020 at 12 knots

Air temperature 1.0° C
Visibility: greater than 5.4 NM
Dewpoint -0.0° C

Last reported at 2018-Dec-11 13:50 UTC.
Time now 2018-Dec-11 15:27 UTC

Location: N 57°40' E 012°18'.
View on Google Maps.

See reports from other nearby stations

  
Tides and Currents Weather Stations Pressure Air Temp Water Temp Dewpoint Dewpoint Depression Visibility Wind Speed Wind Dir Waves Ship Positions
date/time (UTC)wind fromknots sea level pressurealtimeterstation pressurevisibilityair tempwater tempwave heightnotes
2018-Dec-11 14:50 020 8 5.4 1.0
2018-Dec-11 14:20 020 7 5.4 1.0 Light drizzle.
2018-Dec-11 13:50 020 12 5.4 1.0
2018-Dec-11 13:20 010 11 5.4 1.0
2018-Dec-11 12:50 020 13 5.4 2.0 Light drizzle.
2018-Dec-11 12:20 010 14 5.4 2.0
2018-Dec-11 11:50 010 13 5.4 2.0
2018-Dec-11 11:20 010 11 5.4 2.0
2018-Dec-11 10:50 010 11 5.4 2.0
2018-Dec-11 10:20 010 12 5.4 2.0
2018-Dec-11 09:50 010 11 5.4 2.0
2018-Dec-11 09:20 010 11 5.4 2.0
2018-Dec-11 08:50 020 9 5.4 2.0
2018-Dec-11 08:20 020 13 5.4 2.0
2018-Dec-11 07:50 010 11 5.4 2.0
2018-Dec-11 07:20 010 8 5.4 2.0
2018-Dec-11 06:50 350 9 5.4 2.0
2018-Dec-11 06:20 350 8 5.4 2.0
2018-Dec-11 05:50 350 9 5.4 2.0
2018-Dec-11 05:20 360 9 5.4 2.0
2018-Dec-11 04:50 360 9 5.4 1.0
2018-Dec-11 04:20 350 9 5.4 1.0
2018-Dec-11 03:50 360 9 5.4 1.0
2018-Dec-11 03:20 350 12 5.4 1.0
2018-Dec-11 02:50 360 12 5.4 2.0
2018-Dec-11 02:20 350 11 5.4 2.0
2018-Dec-11 01:50 350 13 5.4 1.0
2018-Dec-11 01:20 350 12 5.4 1.0
2018-Dec-11 00:50 360 12 5.4 1.0
2018-Dec-11 00:20 360 13 5.4 2.0
2018-Dec-10 23:50 360 13 5.4 2.0
2018-Dec-10 23:20 360 13 5.4 2.0
2018-Dec-10 22:50 350 13 5.4 2.0
2018-Dec-10 22:20 350 13 5.4 2.0
2018-Dec-10 21:50 350 15 5.4 1.0
2018-Dec-10 21:20 350 15 5.4 1.0
2018-Dec-10 20:50 350 13 5.4 1.0
2018-Dec-10 20:20 350 13 5.4 1.0
2018-Dec-10 19:50 340 12 5.4 1.0
2018-Dec-10 19:20 330 11 5.4 1.0 Light drizzle.
2018-Dec-10 18:50 340 13 5.4 1.0
2018-Dec-10 18:20 330 12 5.4 2.0
2018-Dec-10 17:50 330 13 5.4 2.0
2018-Dec-10 17:20 340 14 5.4 2.0
2018-Dec-10 16:50 330 13 5.4 2.0
2018-Dec-10 16:20 330 13 5.4 2.0
2018-Dec-10 15:50 330 13 5.4 3.0
2018-Dec-10 15:20 330 12 5.4 3.0
2018-Dec-10 14:50 330 12 5.4 3.0
2018-Dec-10 14:20 320 13 5.4 3.0
2018-Dec-10 13:50 320 11 5.4 3.0
2018-Dec-10 13:20 310 9 5.4 3.0
2018-Dec-10 12:50 300 8 5.4 3.0
2018-Dec-10 12:20 290 8 5.4 3.0
2018-Dec-10 11:50 290 7 5.4 3.0
2018-Dec-10 11:20 290 6 5.4 2.0
2018-Dec-10 10:50 320 8 5.4 3.0
2018-Dec-10 10:20 300 6 5.4 2.0
2018-Dec-10 09:50 290 6 5.4 2.0
2018-Dec-10 09:20 280 6 5.4 2.0
2018-Dec-10 08:50 280 6 5.4 2.0
2018-Dec-10 08:20 270 6 5.4 1.0
2018-Dec-10 07:50 260 5 5.4 1.0
2018-Dec-10 07:20 280 5 5.4 1.0
2018-Dec-10 06:50 270 4 5.4 1.0
2018-Dec-10 06:20 280 6 5.4 1.0
2018-Dec-10 05:50 280 4 5.4 1.0
2018-Dec-10 05:20 260 5 5.4 1.0
2018-Dec-10 04:50 270 5 5.4 1.0
2018-Dec-10 04:20 280 4 5.4 1.0
2018-Dec-10 03:50 280 4 5.4 1.0
2018-Dec-10 03:20 280 4 5.4 1.0
2018-Dec-10 02:50 290 4 5.4 1.0
2018-Dec-10 02:20 280 5 5.4 1.0
2018-Dec-10 01:50 260 2 5.4 1.0
2018-Dec-10 01:20 280 4 5.4 1.0
2018-Dec-10 00:50 300 2 5.4 2.0
2018-Dec-10 00:20 260 4 5.4 1.0
2018-Dec-09 23:50 260 4 5.4 1.0
2018-Dec-09 23:20 260 4 5.4 1.0
2018-Dec-09 22:50 250 2 5.4 1.0
2018-Dec-09 22:20 280 4 5.4 1.0
2018-Dec-09 21:50 280 5 5.4 1.0
2018-Dec-09 21:20 290 5 5.4 1.0
2018-Dec-09 20:50 290 5 5.4 1.0
2018-Dec-09 20:20 280 5 5.4-0.0
2018-Dec-09 19:50 270 5 5.4-0.0
2018-Dec-09 19:20 270 4 5.4-0.0
2018-Dec-09 18:50 5.4-1.0
2018-Dec-09 18:20 310 6 5.4-1.0
2018-Dec-09 17:50 310 5 5.4-1.0
2018-Dec-09 17:20 320 6 5.4-1.0
2018-Dec-09 16:50 330 6 5.4-1.0
2018-Dec-09 16:20 320 6 5.4-1.0
2018-Dec-09 15:50 320 6 5.4-0.0
2018-Dec-09 15:20 320 6 5.4-0.0